Time[GMT],temperature[C](51m),dissolved_oxygen[ml/l](51m),oxygen_saturation[ml/l](51m),percent_oxygen_saturation[%](51m)
2014-10-26 00:00,11.74,5.112,6.1742,82.80
2014-10-26 01:00,11.67,5.106,6.1811,82.60
2014-10-26 02:00,11.91,5.224,6.1534,84.90
2014-10-26 03:00,11.99,5.267,6.1384,85.80
2014-10-26 04:00,11.97,5.251,6.1417,85.50
2014-10-26 05:00,11.92,5.242,6.1528,85.20
2014-10-26 06:00,11.30,4.915,6.2376,78.80
2014-10-26 07:00,11.55,5.038,6.1973,81.30
2014-10-26 08:00,11.68,5.117,6.1797,82.80
2014-10-26 09:00,11.63,5.130,6.1884,82.90
2014-10-26 10:00,11.75,5.153,6.1782,83.40
2014-10-26 11:00,11.79,5.193,6.1673,84.20
2014-10-26 12:00,11.77,5.159,6.1714,83.60
2014-10-26 13:00,11.63,5.108,6.1838,82.60
2014-10-26 14:00,11.52,5.050,6.2034,81.40
2014-10-26 15:00,11.50,5.014,6.2051,80.80
2014-10-26 16:00,11.37,5.012,6.2255,80.50
2014-10-26 17:00,11.73,5.233,6.1712,84.80
2014-10-26 18:00,11.81,5.312,6.1619,86.20
2014-10-26 19:00,11.80,5.258,6.1712,85.20
2014-10-26 20:00,11.65,5.168,6.1821,83.60
2014-10-26 21:00,11.68,5.128,6.1857,82.90
2014-10-26 22:00,11.71,5.195,6.1773,84.10
2014-10-26 23:00,11.86,5.247,6.1580,85.20
2014-10-27 00:00,11.93,5.316,6.1528,86.40
2014-10-27 01:00,11.97,5.307,6.1425,86.40
2014-10-27 02:00,12.04,5.365,6.1318,87.50
2014-10-27 03:00,12.10,5.383,6.1243,87.90
2014-10-27 04:00,12.10,5.388,6.1294,87.90
2014-10-27 05:00,11.99,5.377,6.1376,87.60
2014-10-27 06:00,11.80,5.157,6.1687,83.60
2014-10-27 07:00,11.64,5.099,6.1879,82.40
2014-10-27 08:00,11.68,5.146,6.1849,83.20
2014-10-27 09:00,11.75,5.188,6.1693,84.10
2014-10-27 10:00,11.74,5.195,6.1700,84.20
2014-10-27 11:00,11.94,5.267,6.1456,85.70
2014-10-27 12:00,11.88,5.256,6.1613,85.30
2014-10-27 13:00,11.85,5.226,6.1560,84.90
2014-10-27 14:00,11.96,5.298,6.1463,86.20
2014-10-27 15:00,11.83,5.206,6.1613,84.50
2014-10-27 16:00,11.88,5.222,6.1580,84.80
2014-10-27 17:00,11.89,5.242,6.1528,85.20
2014-10-27 18:00,12.00,5.240,6.1429,85.30
2014-10-27 19:00,11.92,5.233,6.1495,85.10
2014-10-27 20:00,11.97,5.278,6.1443,85.90
2014-10-27 21:00,11.87,5.269,6.1554,85.60
2014-10-27 22:00,11.65,5.079,6.1860,82.10
2014-10-27 23:00,11.62,5.061,6.1868,81.80
2014-10-28 00:00,11.57,5.036,6.1945,81.30
2014-10-28 01:00,11.55,5.023,6.2009,81.00
2014-10-28 02:00,11.60,5.065,6.1922,81.80
2014-10-28 03:00,11.84,5.226,6.1633,84.80
2014-10-28 04:00,11.72,5.193,6.1747,84.10
2014-10-28 05:00,11.53,5.000,6.2039,80.60
2014-10-28 06:00,11.51,5.023,6.2085,80.90
2014-10-28 07:00,11.57,5.038,6.1973,81.30
2014-10-28 08:00,11.62,5.081,6.1887,82.10
2014-10-28 09:00,11.66,5.097,6.1852,82.40
2014-10-28 10:00,11.69,5.121,6.1776,82.90
2014-10-28 11:00,11.61,5.065,6.1922,81.80
2014-10-28 12:00,11.53,5.038,6.2049,81.20
2014-10-28 13:00,11.40,4.947,6.2221,79.50
2014-10-28 14:00,11.30,4.900,6.2335,78.60
2014-10-28 15:00,11.51,5.027,6.2064,81.00
2014-10-28 16:00,11.58,5.034,6.1918,81.30
2014-10-28 17:00,11.84,5.209,6.1640,84.50
2014-10-28 18:00,11.27,4.841,6.2388,77.60
2014-10-28 19:00,11.82,5.204,6.1660,84.40
2014-10-28 20:00,11.85,5.229,6.1587,84.90
2014-10-28 21:00,11.90,5.280,6.1541,85.80
2014-10-28 22:00,11.74,5.141,6.1721,83.30
2014-10-28 23:00,11.52,4.987,6.2026,80.40
2014-10-29 00:00,11.52,4.980,6.2019,80.30
2014-10-29 01:00,11.58,5.012,6.1947,80.90
2014-10-29 02:00,11.50,4.987,6.2026,80.40
2014-10-29 03:00,11.55,5.012,6.2024,80.80
2014-10-29 04:00,11.75,5.231,6.1759,84.70
2014-10-29 05:00,11.95,5.448,6.1492,88.60
2014-10-29 06:00,11.94,5.383,6.1452,87.60
2014-10-29 07:00,11.96,5.399,6.1421,87.90
2014-10-29 08:00,11.98,5.383,6.1452,87.60
2014-10-29 09:00,11.94,5.392,6.1484,87.70
2014-10-29 10:00,11.94,5.390,6.1459,87.70
2014-10-29 11:00,11.96,5.410,6.1409,88.10
2014-10-29 12:00,11.98,5.428,6.1403,88.40
2014-10-29 13:00,11.93,5.424,6.1491,88.20
2014-10-29 14:00,11.92,5.379,6.1471,87.50
2014-10-29 15:00,11.89,5.359,6.1522,87.10
2014-10-29 16:00,11.85,5.370,6.1580,87.20
2014-10-29 17:00,11.84,5.377,6.1587,87.30
2014-10-29 18:00,11.82,5.323,6.1678,86.30
2014-10-29 19:00,12.00,5.410,6.1409,88.10
2014-10-29 20:00,11.98,5.412,6.1434,88.10
2014-10-29 21:00,11.97,5.388,6.1433,87.70
2014-10-29 22:00,11.93,5.329,6.1470,86.70
2014-10-29 23:00,11.89,5.329,6.1541,86.60
2014-10-30 00:00,11.91,5.350,6.1561,86.90
2014-10-30 01:00,11.88,5.329,6.1541,86.60
2014-10-30 02:00,11.79,5.285,6.1665,85.70
2014-10-30 03:00,11.80,5.280,6.1685,85.60
2014-10-30 04:00,11.81,5.256,6.1685,85.20
2014-10-30 05:00,11.83,5.278,6.1659,85.60
2014-10-30 06:00,11.82,5.316,6.1671,86.20
2014-10-30 07:00,11.88,5.332,6.1567,86.60
2014-10-30 08:00,11.91,5.352,6.1516,87.00
2014-10-30 09:00,11.91,5.343,6.1554,86.80
2014-10-30 10:00,11.82,5.251,6.1633,85.20
2014-10-30 11:00,11.81,5.229,6.1659,84.80
2014-10-30 12:00,11.81,5.233,6.1640,84.90
2014-10-30 13:00,11.83,5.242,6.1672,85.00
2014-10-30 14:00,11.82,5.229,6.1659,84.80
2014-10-30 15:00,11.82,5.222,6.1653,84.70
2014-10-30 16:00,11.83,5.215,6.1646,84.60
2014-10-30 17:00,11.80,5.144,6.1674,83.40
2014-10-30 18:00,11.80,5.137,6.1668,83.30
2014-10-30 19:00,11.86,5.238,6.1547,85.10
2014-10-30 20:00,11.87,5.256,6.1541,85.40
2014-10-30 21:00,11.79,5.103,6.1709,82.70
2014-10-30 22:00,11.81,5.150,6.1681,83.50
2014-10-30 23:00,11.74,5.070,6.1751,82.10
2014-10-31 00:00,11.76,5.097,6.1702,82.60
2014-10-31 01:00,11.78,5.130,6.1661,83.20
2014-10-31 02:00,11.77,5.101,6.1682,82.70
2014-10-31 03:00,11.72,5.101,6.1756,82.60
2014-10-31 04:00,11.75,5.139,6.1694,83.30
2014-10-31 05:00,11.76,5.188,6.1693,84.10
2014-10-31 06:00,11.79,5.229,6.1659,84.80
2014-10-31 07:00,11.82,5.240,6.1646,85.00
2014-10-31 08:00,11.87,5.312,6.1548,86.30
2014-10-31 09:00,11.88,5.329,6.1541,86.60
2014-10-31 10:00,11.91,5.352,6.1516,87.00
2014-10-31 11:00,11.86,5.318,6.1554,86.40
2014-10-31 12:00,11.87,5.321,6.1580,86.40
2014-10-31 13:00,11.86,5.300,6.1561,86.10
2014-10-31 14:00,11.90,5.338,6.1574,86.70
2014-10-31 15:00,11.82,5.262,6.1620,85.40
2014-10-31 16:00,11.76,5.184,6.1714,84.00
2014-10-31 17:00,11.67,5.081,6.1812,82.20
2014-10-31 18:00,11.64,5.052,6.1910,81.60
2014-10-31 19:00,11.73,5.166,6.1795,83.60
2014-10-31 20:00,11.77,5.191,6.1720,84.10
2014-10-31 21:00,11.83,5.247,6.1653,85.10
2014-10-31 22:00,11.85,5.280,6.1613,85.70
2014-10-31 23:00,11.87,5.305,6.1613,86.10
2014-11-01 00:00,11.88,5.316,6.1528,86.40
2014-11-01 01:00,11.93,5.359,6.1522,87.10
2014-11-01 02:00,11.99,5.352,6.1445,87.10
2014-11-01 03:00,11.95,5.305,6.1470,86.30
2014-11-01 04:00,11.92,5.265,6.1502,85.60
2014-11-01 05:00,11.92,5.278,6.1515,85.80
2014-11-01 06:00,11.94,5.291,6.1457,86.10
2014-11-01 07:00,11.93,5.316,6.1528,86.40
2014-11-01 08:00,11.94,5.336,6.1477,86.80
2014-11-01 09:00,11.93,5.347,6.1535,86.90
2014-11-01 10:00,11.95,5.372,6.1465,87.40
2014-11-01 11:00,11.94,5.361,6.1477,87.20
2014-11-01 12:00,11.89,5.341,6.1529,86.80
2014-11-01 13:00,11.90,5.356,6.1567,87.00
2014-11-01 14:00,11.89,5.343,6.1554,86.80
2014-11-01 15:00,11.87,5.300,6.1561,86.10
2014-11-01 16:00,11.88,5.325,6.1561,86.50
2014-11-01 17:00,11.84,5.235,6.1593,85.00
2014-11-01 18:00,11.85,5.269,6.1626,85.50
2014-11-01 19:00,11.89,5.274,6.1534,85.70
2014-11-01 20:00,11.91,5.329,6.1541,86.60
2014-11-01 21:00,11.97,5.354,6.1471,87.10
2014-11-01 22:00,11.97,5.361,6.1407,87.30
2014-11-01 23:00,11.92,5.256,6.1541,85.40
2014-11-02 00:00,11.92,5.285,6.1522,85.90
2014-11-02 01:00,11.90,5.233,6.1495,85.10
2014-11-02 02:00,11.88,5.215,6.1574,84.70
2014-11-02 03:00,11.88,5.213,6.1547,84.70
2014-11-02 04:00,11.84,5.121,6.1627,83.10
2014-11-02 05:00,11.83,5.128,6.1634,83.20
2014-11-02 06:00,11.82,5.117,6.1648,83.00
2014-11-02 07:00,11.89,5.325,6.1561,86.50
2014-11-02 08:00,11.98,5.596,6.1427,91.10
2014-11-02 09:00,11.97,5.587,6.1463,90.90
2014-11-02 10:00,11.83,5.733,6.1640,93.00
2014-11-02 11:00,11.82,5.733,6.1640,93.00
2014-11-02 12:00,11.88,5.677,6.1568,92.20
2014-11-02 13:00,11.81,5.580,6.1661,90.50
2014-11-02 14:00,11.79,5.551,6.1680,90.00
2014-11-02 15:00,11.80,5.567,6.1648,90.30
2014-11-02 16:00,11.79,5.560,6.1711,90.10
2014-11-02 17:00,11.75,5.603,6.1704,90.80
2014-11-02 18:00,11.73,5.623,6.1789,91.00
2014-11-02 19:00,11.71,5.630,6.1795,91.10
2014-11-02 20:00,11.68,5.614,6.1827,90.80
2014-11-02 21:00,11.65,5.600,6.1883,90.50
2014-11-02 22:00,11.61,5.612,6.1939,90.60
2014-11-02 23:00,11.62,5.618,6.1876,90.80
2014-11-03 00:00,11.61,5.614,6.1895,90.70
2014-11-03 01:00,11.61,5.605,6.1933,90.50
2014-11-03 02:00,11.62,5.607,6.1889,90.60
2014-11-03 03:00,11.59,5.603,6.1977,90.40
2014-11-03 04:00,11.59,5.618,6.1944,90.70
2014-11-03 05:00,11.59,5.625,6.1950,90.80
2014-11-03 06:00,11.62,5.576,6.1885,90.10
2014-11-03 07:00,11.54,5.509,6.2034,88.80
2014-11-03 08:00,11.48,5.500,6.2073,88.60
2014-11-03 09:00,11.52,5.547,6.2044,89.40
2014-11-03 10:00,11.55,5.600,6.2020,90.30
2014-11-03 11:00,11.56,5.560,6.1986,89.70
2014-11-03 12:00,11.52,5.533,6.2032,89.20
2014-11-03 13:00,11.55,5.616,6.1988,90.60
2014-11-03 14:00,11.52,5.616,6.2057,90.50
2014-11-03 15:00,11.50,5.576,6.2022,89.90
2014-11-03 16:00,11.46,5.509,6.2104,88.70
2014-11-03 17:00,11.38,5.432,6.2228,87.30
2014-11-03 18:00,11.42,5.556,6.2144,89.40
2014-11-03 19:00,11.28,5.242,6.2332,84.10
2014-11-03 20:00,11.39,5.435,6.2254,87.30
2014-11-03 21:00,11.39,5.439,6.2234,87.40
2014-11-03 22:00,11.34,5.291,6.2252,85.00
2014-11-03 23:00,11.30,5.312,6.2342,85.20
2014-11-04 00:00,11.29,5.305,6.2337,85.10
2014-11-04 01:00,11.44,5.612,6.2144,90.30
2014-11-04 02:00,11.43,5.659,6.2183,91.00
2014-11-04 03:00,11.48,5.614,6.2100,90.40
2014-11-04 04:00,11.43,5.641,6.2123,90.80
2014-11-04 05:00,11.40,5.583,6.2236,89.70
2014-11-04 06:00,11.37,5.583,6.2236,89.70
2014-11-04 07:00,11.10,5.072,6.2617,81.00
2014-11-04 08:00,11.06,5.054,6.2628,80.70
2014-11-04 09:00,11.11,5.085,6.2551,81.30
2014-11-04 10:00,11.13,5.148,6.2553,82.30
2014-11-04 11:00,11.34,5.574,6.2275,89.50
2014-11-04 12:00,11.32,5.480,6.2267,88.00
2014-11-04 13:00,11.36,5.518,6.2205,88.70
2014-11-04 14:00,11.38,5.553,6.2258,89.20
2014-11-04 15:00,11.37,5.527,6.2236,88.80
2014-11-04 16:00,11.36,5.609,6.2257,90.10
2014-11-04 17:00,11.39,5.558,6.2238,89.30
2014-11-04 18:00,11.27,5.383,6.2378,86.30
2014-11-04 19:00,11.31,5.406,6.2277,86.80
2014-11-04 20:00,11.23,5.336,6.2412,85.50
2014-11-04 21:00,11.11,5.213,6.2582,83.30
2014-11-04 22:00,11.13,5.200,6.2571,83.10
2014-11-04 23:00,11.19,5.300,6.2504,84.80
2014-11-05 00:00,11.28,5.363,6.2361,86.00
2014-11-05 01:00,11.30,5.365,6.2315,86.10
2014-11-05 02:00,11.17,5.213,6.2507,83.40
2014-11-05 03:00,11.26,5.318,6.2421,85.20
2014-11-05 04:00,11.36,5.502,6.2239,88.40
2014-11-05 05:00,11.36,5.518,6.2275,88.60
2014-11-05 06:00,11.35,5.589,6.2241,89.80
2014-11-05 07:00,11.32,5.596,6.2316,89.80
2014-11-05 08:00,11.07,5.137,6.2645,82.00
2014-11-05 09:00,11.04,5.103,6.2694,81.40
2014-11-05 10:00,11.08,5.148,6.2629,82.20
2014-11-05 11:00,11.11,5.184,6.2608,82.80
2014-11-05 12:00,10.99,4.994,6.2734,79.60
2014-11-05 13:00,10.95,4.913,6.2826,78.20
2014-11-05 14:00,11.04,5.029,6.2711,80.20
2014-11-05 15:00,11.01,4.980,6.2722,79.40
2014-11-05 16:00,10.92,4.947,6.2854,78.70
2014-11-05 17:00,10.93,4.893,6.2809,77.90
2014-11-05 18:00,10.90,4.857,6.2833,77.30
2014-11-05 19:00,10.97,5.016,6.2778,79.90
2014-11-05 20:00,10.98,5.016,6.2778,79.90
2014-11-05 21:00,11.02,5.067,6.2716,80.80
2014-11-05 22:00,10.93,4.953,6.2859,78.80
2014-11-05 23:00,10.92,4.902,6.2843,78.00
2014-11-06 00:00,10.98,4.973,6.2717,79.30
2014-11-06 01:00,11.09,5.067,6.2639,80.90
2014-11-06 02:00,11.06,5.032,6.2661,80.30
2014-11-06 03:00,11.24,5.119,6.2427,82.00
2014-11-06 04:00,11.23,5.092,6.2403,81.60
2014-11-06 05:00,11.30,5.249,6.2338,84.20
2014-11-06 06:00,11.29,5.249,6.2338,84.20
2014-11-06 07:00,11.27,5.153,6.2380,82.60
2014-11-06 08:00,11.19,5.117,6.2476,81.90
2014-11-06 09:00,11.15,5.076,6.2518,81.20
2014-11-06 10:00,11.12,5.076,6.2595,81.10
2014-11-06 11:00,11.20,5.132,6.2438,82.20
2014-11-06 12:00,11.32,5.162,6.2337,82.80
2014-11-06 13:00,11.17,5.094,6.2508,81.50
2014-11-06 14:00,11.40,5.388,6.2214,86.60
2014-11-06 15:00,11.32,5.226,6.2294,83.90
2014-11-06 16:00,11.34,5.291,6.2325,84.90
2014-11-06 17:00,11.30,5.271,6.2308,84.60
2014-11-06 18:00,11.33,5.296,6.2305,85.00
2014-11-06 19:00,11.29,5.244,6.2359,84.10
2014-11-06 20:00,11.30,5.224,6.2342,83.80
2014-11-06 21:00,11.29,5.179,6.2328,83.10
2014-11-06 22:00,11.26,5.168,6.2343,82.90
2014-11-06 23:00,11.29,5.173,6.2397,82.90
2014-11-07 00:00,11.23,5.170,6.2446,82.80
2014-11-07 01:00,11.32,5.271,6.2308,84.60
2014-11-07 02:00,11.27,5.262,6.2350,84.40
2014-11-07 03:00,11.28,5.240,6.2380,84.00
2014-11-07 04:00,11.29,5.251,6.2365,84.20
2014-11-07 05:00,11.34,5.312,6.2269,85.30
2014-11-07 06:00,11.37,5.403,6.2251,86.80
2014-11-07 07:00,11.39,5.410,6.2185,87.00
2014-11-07 08:00,11.42,5.464,6.2160,87.90
2014-11-07 09:00,11.41,5.421,6.2171,87.20
2014-11-07 10:00,11.38,5.374,6.2274,86.30
2014-11-07 11:00,11.35,5.343,6.2272,85.80
2014-11-07 12:00,11.41,5.365,6.2171,86.30
2014-11-07 13:00,11.46,5.361,6.2119,86.30
2014-11-07 14:00,11.44,5.471,6.2165,88.00
2014-11-07 15:00,11.52,5.439,6.2021,87.70
2014-11-07 16:00,11.62,5.390,6.1882,87.10
2014-11-07 17:00,11.70,5.365,6.1812,86.80
2014-11-07 18:00,11.53,5.439,6.2021,87.70
2014-11-07 19:00,11.39,5.567,6.2199,89.50
2014-11-07 20:00,11.43,5.531,6.2146,89.00
2014-11-07 21:00,11.36,5.567,6.2269,89.40
2014-11-07 22:00,11.45,5.448,6.2123,87.70
2014-11-07 23:00,11.49,5.446,6.2097,87.70
2014-11-08 00:00,11.51,5.480,6.2056,88.30
2014-11-08 01:00,11.45,5.533,6.2102,89.10
2014-11-08 02:00,11.34,5.605,6.2277,90.00
2014-11-08 03:00,11.41,5.574,6.2205,89.60
2014-11-08 04:00,11.41,5.549,6.2138,89.30
2014-11-08 05:00,11.59,5.457,6.1942,88.10
2014-11-08 06:00,11.59,5.455,6.1917,88.10
2014-11-08 07:00,11.60,5.457,6.1942,88.10
2014-11-08 08:00,11.56,5.473,6.1980,88.30
2014-11-08 09:00,11.40,5.556,6.2213,89.30
2014-11-08 10:00,11.42,5.531,6.2216,88.90
2014-11-08 11:00,11.45,5.522,6.2115,88.90
2014-11-08 12:00,11.42,5.538,6.2152,89.10
2014-11-08 13:00,11.44,5.524,6.2141,88.90
2014-11-08 14:00,11.41,5.542,6.2202,89.10
2014-11-08 15:00,11.43,5.522,6.2115,88.90
2014-11-08 16:00,11.46,5.506,6.2079,88.70
2014-11-08 17:00,11.36,5.562,6.2219,89.40
2014-11-08 18:00,11.47,5.486,6.2132,88.30
2014-11-08 19:00,11.44,5.500,6.2143,88.50
2014-11-08 20:00,11.36,5.558,6.2238,89.30
2014-11-08 21:00,11.35,5.542,6.2272,89.00
2014-11-08 22:00,11.49,5.439,6.2091,87.60
2014-11-08 23:00,11.42,5.484,6.2177,88.20
2014-11-09 00:00,11.41,5.497,6.2188,88.40
2014-11-09 01:00,11.27,5.569,6.2364,89.30
2014-11-09 02:00,11.23,5.598,6.2410,89.70
2014-11-09 03:00,11.43,5.484,6.2177,88.20
2014-11-09 04:00,11.41,5.488,6.2157,88.30
2014-11-09 05:00,11.43,5.457,6.2154,87.80
2014-11-09 06:00,11.42,5.466,6.2185,87.90
2014-11-09 07:00,11.43,5.482,6.2151,88.20
2014-11-09 08:00,11.28,5.596,6.2385,89.70
2014-11-09 09:00,11.36,5.504,6.2264,88.40
2014-11-09 10:00,11.28,5.540,6.2387,88.80
2014-11-09 11:00,11.37,5.524,6.2211,88.80
2014-11-09 12:00,11.41,5.513,6.2155,88.70
2014-11-09 13:00,11.33,5.553,6.2258,89.20
2014-11-09 14:00,11.27,5.594,6.2360,89.70
2014-11-09 15:00,11.39,5.544,6.2227,89.10
2014-11-09 16:00,11.26,5.594,6.2360,89.70
2014-11-09 17:00,11.21,5.607,6.2441,89.80
2014-11-09 18:00,11.18,5.634,6.2531,90.10
2014-11-09 19:00,11.18,5.636,6.2486,90.20
2014-11-09 20:00,11.18,5.639,6.2511,90.20
2014-11-09 21:00,11.18,5.634,6.2462,90.20
2014-11-09 22:00,11.18,5.627,6.2456,90.10
2014-11-09 23:00,11.20,5.618,6.2496,89.90
2014-11-10 00:00,11.24,5.587,6.2425,89.50
2014-11-10 01:00,11.21,5.598,6.2410,89.70
2014-11-10 02:00,11.23,5.594,6.2430,89.60
2014-11-10 03:00,11.21,5.600,6.2435,89.70
2014-11-10 04:00,11.20,5.591,6.2475,89.50
2014-11-10 05:00,11.19,5.609,6.2465,89.80
2014-11-10 06:00,11.18,5.603,6.2460,89.70
2014-11-10 07:00,11.16,5.607,6.2510,89.70
2014-11-10 08:00,11.17,5.603,6.2530,89.60
2014-11-10 09:00,11.17,5.598,6.2480,89.60
2014-11-10 10:00,11.13,5.618,6.2565,89.80
2014-11-10 11:00,11.14,5.618,6.2565,89.80
2014-11-10 12:00,11.14,5.612,6.2560,89.70
2014-11-10 13:00,11.16,5.600,6.2505,89.60
2014-11-10 14:00,11.13,5.627,6.2595,89.90
2014-11-10 15:00,11.14,5.614,6.2515,89.80
2014-11-10 16:00,11.11,5.627,6.2595,89.90
2014-11-10 17:00,11.17,5.585,6.2469,89.40
2014-11-10 18:00,11.11,5.639,6.2581,90.10
2014-11-10 19:00,11.11,5.634,6.2600,90.00
2014-11-10 20:00,11.13,5.618,6.2565,89.80
2014-11-10 21:00,11.15,5.600,6.2505,89.60
2014-11-10 22:00,11.14,5.616,6.2540,89.80
2014-11-10 23:00,11.15,5.603,6.2530,89.60
2014-11-11 00:00,11.14,5.614,6.2515,89.80
2014-11-11 01:00,11.15,5.603,6.2530,89.60
2014-11-11 02:00,11.19,5.583,6.2514,89.30
2014-11-11 03:00,11.18,5.585,6.2469,89.40
2014-11-11 04:00,11.15,5.609,6.2535,89.70
2014-11-11 05:00,11.13,5.627,6.2595,89.90
2014-11-11 06:00,11.13,5.627,6.2595,89.90
2014-11-11 07:00,11.13,5.634,6.2531,90.10
2014-11-11 08:00,11.13,5.625,6.2570,89.90
2014-11-11 09:00,11.13,5.627,6.2526,90.00
2014-11-11 10:00,11.13,5.618,6.2565,89.80
2014-11-11 11:00,11.14,5.600,6.2505,89.60
2014-11-11 12:00,11.15,5.580,6.2559,89.20
2014-11-11 13:00,11.14,5.605,6.2555,89.60
2014-11-11 14:00,11.14,5.612,6.2560,89.70
2014-11-11 15:00,11.13,5.594,6.2570,89.40
2014-11-11 16:00,11.16,5.565,6.2524,89.00
2014-11-11 17:00,11.15,5.569,6.2504,89.10
2014-11-11 18:00,11.16,5.565,6.2524,89.00
2014-11-11 19:00,11.15,5.585,6.2539,89.30
2014-11-11 20:00,11.12,5.618,6.2565,89.80
2014-11-11 21:00,11.12,5.614,6.2585,89.70
2014-11-11 22:00,11.13,5.607,6.2580,89.60
2014-11-11 23:00,11.12,5.609,6.2535,89.70
2014-11-12 00:00,11.13,5.607,6.2580,89.60
2014-11-12 01:00,11.13,5.596,6.2525,89.50
2014-11-12 02:00,11.14,5.589,6.2520,89.40
2014-11-12 03:00,11.18,5.527,6.2517,88.40
2014-11-12 04:00,11.14,5.596,6.2525,89.50
2014-11-12 05:00,11.16,5.574,6.2554,89.10
2014-11-12 06:00,11.25,5.502,6.2380,88.20
2014-11-12 07:00,11.24,5.513,6.2436,88.30
2014-11-12 08:00,11.21,5.542,6.2412,88.80
2014-11-12 09:00,11.27,5.518,6.2346,88.50
2014-11-12 10:00,11.26,5.522,6.2396,88.50
2014-11-12 11:00,11.29,5.493,6.2349,88.10
2014-11-12 12:00,11.33,5.459,6.2250,87.70
2014-11-12 13:00,11.37,5.437,6.2208,87.40
2014-11-12 14:00,11.39,5.419,6.2217,87.10
2014-11-12 15:00,11.40,5.410,6.2185,87.00
2014-11-12 16:00,11.31,5.484,6.2318,88.00
2014-11-12 17:00,11.32,5.484,6.2318,88.00
2014-11-12 18:00,11.33,5.473,6.2333,87.80
2014-11-12 19:00,11.25,5.524,6.2422,88.50
2014-11-12 20:00,11.33,5.471,6.2307,87.80
2014-11-12 21:00,11.25,5.524,6.2422,88.50
2014-11-12 22:00,11.20,5.544,6.2438,88.80
2014-11-12 23:00,11.26,5.511,6.2411,88.30
2014-11-13 00:00,11.28,5.504,6.2335,88.30
2014-11-13 01:00,11.37,5.455,6.2270,87.60
2014-11-13 02:00,11.30,5.493,6.2349,88.10
2014-11-13 03:00,11.32,5.475,6.2287,87.90
2014-11-13 04:00,11.35,5.459,6.2250,87.70
2014-11-13 05:00,11.38,5.439,6.2234,87.40
2014-11-13 06:00,11.33,5.464,6.2302,87.70
2014-11-13 07:00,11.38,5.437,6.2208,87.40
2014-11-13 08:00,11.38,5.448,6.2194,87.60
2014-11-13 09:00,11.33,5.468,6.2282,87.80
2014-11-13 10:00,11.30,5.482,6.2293,88.00
2014-11-13 11:00,11.29,5.484,6.2318,88.00
2014-11-13 12:00,11.29,5.486,6.2344,88.00
2014-11-13 13:00,11.29,5.471,6.2378,87.70
2014-11-13 14:00,11.36,5.421,6.2242,87.10
2014-11-13 15:00,11.35,5.444,6.2285,87.40
2014-11-13 16:00,11.34,5.457,6.2296,87.60
2014-11-13 17:00,11.29,5.484,6.2318,88.00
2014-11-13 18:00,11.29,5.477,6.2313,87.90
2014-11-13 19:00,11.30,5.484,6.2318,88.00
2014-11-13 20:00,11.23,5.506,6.2431,88.20
2014-11-13 21:00,11.27,5.480,6.2338,87.90
2014-11-13 22:00,11.22,5.486,6.2415,87.90
2014-11-13 23:00,11.26,5.473,6.2404,87.70
2014-11-14 00:00,11.36,5.421,6.2242,87.10
2014-11-14 01:00,11.35,5.446,6.2310,87.40
2014-11-14 02:00,11.35,5.450,6.2290,87.50
2014-11-14 03:00,11.36,5.444,6.2285,87.40
2014-11-14 04:00,11.36,5.430,6.2274,87.20
2014-11-14 05:00,11.33,5.457,6.2296,87.60
2014-11-14 06:00,11.34,5.441,6.2259,87.40
2014-11-14 07:00,11.36,5.435,6.2254,87.30
2014-11-14 08:00,11.38,5.397,6.2245,86.70
2014-11-14 09:00,11.38,5.361,6.2191,86.20
2014-11-14 10:00,11.34,5.424,6.2268,87.10
2014-11-14 11:00,11.35,5.417,6.2262,87.00
2014-11-14 12:00,11.26,5.486,6.2415,87.90
2014-11-14 13:00,11.34,5.428,6.2248,87.20
2014-11-14 14:00,11.33,5.439,6.2305,87.30
2014-11-14 15:00,11.30,5.448,6.2336,87.40
2014-11-14 16:00,11.31,5.441,6.2330,87.30
2014-11-14 17:00,11.22,5.509,6.2456,88.20
2014-11-14 18:00,11.26,5.477,6.2384,87.80
2014-11-14 19:00,11.18,5.529,6.2472,88.50
2014-11-14 20:00,11.17,5.513,6.2507,88.20
2014-11-14 21:00,11.33,5.430,6.2274,87.20
2014-11-14 22:00,11.38,5.377,6.2228,86.40
2014-11-14 23:00,11.37,5.379,6.2254,86.40
2014-11-15 00:00,11.33,5.417,6.2262,87.00
2014-11-15 01:00,11.28,5.435,6.2325,87.20
2014-11-15 02:00,11.33,5.403,6.2251,86.80
2014-11-15 03:00,11.32,5.430,6.2274,87.20
2014-11-15 04:00,11.32,5.430,6.2345,87.10
2014-11-15 05:00,11.30,5.437,6.2351,87.20
2014-11-15 06:00,11.29,5.437,6.2351,87.20
2014-11-15 07:00,11.28,5.441,6.2330,87.30
2014-11-15 08:00,11.23,5.459,6.2464,87.40
2014-11-15 09:00,11.28,5.453,6.2316,87.50
2014-11-15 10:00,11.18,5.464,6.2515,87.40
2014-11-15 11:00,11.21,5.459,6.2464,87.40
2014-11-15 12:00,11.31,5.450,6.2290,87.50
2014-11-15 13:00,11.33,5.415,6.2308,86.90
2014-11-15 14:00,11.33,5.410,6.2257,86.90
2014-11-15 15:00,11.32,5.403,6.2323,86.70
2014-11-15 16:00,11.33,5.392,6.2265,86.60
2014-11-15 17:00,11.33,5.403,6.2251,86.80
2014-11-15 18:00,11.33,5.401,6.2297,86.70
2014-11-15 19:00,11.34,5.390,6.2312,86.50
2014-11-15 20:00,11.34,5.403,6.2251,86.80
2014-11-15 21:00,11.35,5.392,6.2265,86.60
2014-11-15 22:00,11.34,5.408,6.2231,86.90
2014-11-15 23:00,11.32,5.426,6.2294,87.10
2014-11-16 00:00,11.33,5.419,6.2288,87.00
2014-11-16 01:00,11.35,5.401,6.2297,86.70
2014-11-16 02:00,11.35,5.356,6.2283,86.00
2014-11-16 03:00,11.36,5.350,6.2278,85.90
2014-11-16 04:00,11.36,5.336,6.2266,85.70
2014-11-16 05:00,11.35,5.338,6.2220,85.80
2014-11-16 06:00,11.36,5.327,6.2234,85.60
2014-11-16 07:00,11.34,5.385,6.2260,86.50
2014-11-16 08:00,11.32,5.453,6.2316,87.50
2014-11-16 09:00,11.30,5.446,6.2310,87.40
2014-11-16 10:00,11.35,5.361,6.2263,86.10
2014-11-16 11:00,11.35,5.350,6.2278,85.90
2014-11-16 12:00,11.36,5.334,6.2240,85.70
2014-11-16 13:00,11.35,5.379,6.2254,86.40
2014-11-16 14:00,11.32,5.408,6.2303,86.80
2014-11-16 15:00,11.38,5.314,6.2223,85.40
2014-11-16 16:00,11.39,5.303,6.2237,85.20
2014-11-16 17:00,11.38,5.298,6.2185,85.20
2014-11-16 18:00,11.37,5.323,6.2255,85.50
2014-11-16 19:00,11.36,5.336,6.2266,85.70
2014-11-16 20:00,11.33,5.379,6.2326,86.30
2014-11-16 21:00,11.35,5.347,6.2251,85.90
2014-11-16 22:00,11.39,5.285,6.2246,84.90
2014-11-16 23:00,11.36,5.341,6.2246,85.80
2014-11-17 00:00,11.38,5.312,6.2269,85.30
2014-11-17 01:00,11.37,5.318,6.2202,85.50
2014-11-17 02:00,11.35,5.370,6.2295,86.20
2014-11-17 03:00,11.37,5.323,6.2255,85.50
2014-11-17 04:00,11.38,5.309,6.2243,85.30
2014-11-17 05:00,11.37,5.312,6.2269,85.30
2014-11-17 06:00,11.35,5.388,6.2214,86.60
2014-11-17 07:00,11.35,5.383,6.2234,86.50
2014-11-17 08:00,11.36,5.350,6.2278,85.90
2014-11-17 09:00,11.31,5.370,6.2295,86.20
2014-11-17 10:00,11.17,5.506,6.2502,88.10
2014-11-17 11:00,11.14,5.509,6.2527,88.10
2014-11-17 12:00,11.20,5.453,6.2459,87.30
2014-11-17 13:00,11.14,5.493,6.2562,87.80
2014-11-17 14:00,11.18,5.473,6.2475,87.60
2014-11-17 15:00,11.26,5.428,6.2391,87.00
2014-11-17 16:00,11.30,5.374,6.2347,86.20
2014-11-17 17:00,11.34,5.291,6.2252,85.00
2014-11-17 18:00,11.34,5.285,6.2246,84.90
2014-11-17 19:00,11.34,5.282,6.2293,84.80
2014-11-17 20:00,11.34,5.253,6.2244,84.40
2014-11-17 21:00,11.35,5.247,6.2238,84.30
2014-11-17 22:00,11.32,5.260,6.2323,84.40
2014-11-17 23:00,11.31,5.282,6.2293,84.80
2014-11-18 00:00,11.33,5.240,6.2306,84.10
2014-11-18 01:00,11.18,5.325,6.2500,85.20
2014-11-18 02:00,11.26,5.276,6.2361,84.60